Home   Weather   Norfolk   Past weeks
Flag for Canada

Past Weather in Norfolk, Ontario, Canada — Yesterday and Last 2 Weeks

Now
57 °F

Cool.


Feels Like: 55 °F
Forecast: 71 / 54 °F
Wind: 9 mph from South

Location: Delhi Cs Ont

Current Time: Jun 2, 2020 at 11:28:35 am

Latest Report: Jun 2, 2020 at 10:00 am


Visibility: N/A

Pressure: 29.95 "Hg

Humidity: 80%

Dew Point: 51 °F

Location of NorfolkLocation

Past Weather in Norfolk — Graph

°F

Norfolk Temperature Yesterday

Maximum temperature yesterday: 69 °F (at 1:00 pm)
Minimum temperature yesterday: 48 °F (at 6:00 am)
Average temperature yesterday: 59 °F

High & Low Weather Summary for the Past Weeks

 TemperatureHumidityPressure
High90 °F (May 26, 5:00 pm)100% (May 23, 2:00 am)30.35 "Hg (May 23, 2:00 am)
Low40 °F (May 31, 6:00 am)24% (May 20, 3:00 pm)29.78 "Hg (May 29, 3:00 pm)
Average63 °F70%30.10 "Hg
* Reported May 18 10:00 am — Jun 2 10:00 am, Norfolk. Weather by CustomWeather, © 2020

Note: Actual official high and low records may vary slightly from our data, if they occured in-between our weather recording intervals... More about our weather records

Norfolk Weather History for the Previous 24 Hours

Scroll right to see more
 ConditionsComfort  
Time TempWeatherWind HumidityBarometerVisibility
10:00 am
Tue, Jun 2
57 °FCool.9 mph80%29.95 "HgN/A
9:00 am55 °FCool.8 mph87%29.98 "HgN/A
8:00 am54 °FCool.9 mph92%29.98 "HgN/A
7:00 am55 °FCool.8 mph87%30.01 "HgN/A
6:00 am56 °FCool.5 mph87%30.02 "HgN/A
5:00 am56 °FCool.6 mph88%30.05 "HgN/A
4:00 am55 °FCool.3 mph86%30.09 "HgN/A
3:00 am56 °FCool.2 mph77%30.10 "HgN/A
2:00 am57 °FCool.2 mph63%30.10 "HgN/A
1:00 am59 °FRefreshingly cool.3 mph52%30.10 "HgN/A
12:00 am60 °FRefreshingly cool.5 mph47%30.09 "HgN/A
11:00 pm
Mon, Jun 1
60 °FRefreshingly cool.3 mph47%30.11 "HgN/A
10:00 pm62 °FRefreshingly cool.5 mph39%30.12 "HgN/A
9:00 pm63 °FMild.5 mph34%30.12 "HgN/A
8:00 pm65 °FMild.9 mph31%30.14 "HgN/A
7:00 pm67 °FMild.10 mph29%30.15 "HgN/A
6:00 pm68 °FMild.9 mph31%30.16 "HgN/A
5:00 pm68 °FMild.10 mph32%30.17 "HgN/A
4:00 pm68 °FMild.10 mph36%30.19 "HgN/A
3:00 pm69 °FMild.9 mph39%30.21 "HgN/A
2:00 pm69 °FMild.9 mph36%30.23 "HgN/A
1:00 pm69 °FMild.9 mph27%30.25 "HgN/A
12:00 pm67 °FMild.8 mph29%30.27 "HgN/A
11:00 am64 °FMild.8 mph32%30.28 "HgN/A
Weather by CustomWeather, © 2020

See weather overview

Advertising